Location: Betra
(48.4113°N, 8.6634°E)
Time: 23:26:49
(UTC+00:00)

Aureole 3 - Pass Details

Date: 07 August 2024
Orbit: 375 x 1118 km, 82.5° (Epoch: 10 September)

Event Time Altitude Azimuth Distance (km) Brightness Sun altitude
Rises 00:55:55 0° 358° (N) 2,863 8.1 -22.6°
Reaches altitude 10° 00:58:35 10° 10° (N) 1,823 7.0 -22.4°
Maximum altitude 01:01:56 27° 69° (ENE) 968 5.0 -22.2°
Enters shadow 01:03:21 20° 108° (ESE) 1,113 4.9 -22.1°
